EW8669 Weather Reports


Display with metric or nautical units.
time (UTC)temp
F
wind
direction
speed
MPH
gust
MPH
rain 1hr
in
rain 24hr
in
rain mn
in
humidity
%
barometer
mb
20260902083525 77 0 0.0 0.0 0.00 0.07 0.00 94 1014.2
20260902083049 77 0 0.0 0.0 0.00 0.07 0.00 94 1014.2
20260902082524 77 0 0.0 0.0 0.00 0.07 0.00 94 1014.3
20260902082021 77 0 0.0 0.0 0.00 0.07 0.00 94 1014.3
20260902081545 77 0 0.0 0.0 0.00 0.07 0.00 94 1014.3
20260902081024 77 0 0.0 0.0 0.00 0.07 0.00 94 1014.3
20260902080525 77 0 0.0 0.0 0.00 0.07 0.00 94 1014.3
20260902080044 77 0 0.0 0.0 0.00 0.07 0.00 94 1014.2
20260902075524 77 0 0.0 0.0 0.00 0.07 0.00 94 1014.3
20260902075023 77 0 0.0 0.0 0.00 0.07 0.00 94 1014.2
20260902074551 77 0 0.0 0.0 0.00 0.07 0.00 94 1014.2
20260902074022 77 0 0.0 0.0 0.00 0.07 0.00 94 1014.3
20260902073525 77 0 0.0 0.0 0.00 0.07 0.00 94 1014.4
20260902073048 77 0 0.0 0.0 0.00 0.07 0.00 94 1014.5
20260902072525 77 0 0.0 0.0 0.00 0.07 0.00 94 1014.4
20260902072024 77 0 0.0 0.0 0.00 0.07 0.00 94 1014.4
20260902071545 77 0 0.0 0.0 0.00 0.07 0.00 94 1014.4
20260902071021 77 0 0.0 0.0 0.00 0.07 0.00 94 1014.6
20260902070523 77 0 0.0 0.0 0.00 0.07 0.00 94 1014.6
20260902070046 77 0 0.0 0.0 0.00 0.07 0.00 94 1014.7
20260902065527 77 0 0.0 0.0 0.00 0.07 0.00 94 1014.7
20260902065027 77 0 0.0 0.0 0.00 0.07 0.00 94 1014.7
20260902064544 77 0 0.0 0.0 0.00 0.07 0.00 94 1014.7
20260902064025 76 0 0.0 0.0 0.00 0.07 0.00 94 1014.7
20260902063525 77 0 0.0 0.0 0.00 0.07 0.00 94 1014.6
20260902063053 77 0 0.0 0.0 0.00 0.07 0.00 93 1014.6
20260902062529 77 0 0.0 0.0 0.00 0.07 0.00 93 1014.6
20260902062024 77 0 0.0 0.0 0.00 0.07 0.00 93 1014.6
20260902061607 77 0 0.0 0.0 0.00 0.07 0.00 93 1014.8
20260902061022 77 0 0.0 0.0 0.00 0.07 0.00 93 1014.8
20260902060522 77 0 0.0 0.0 0.00 0.07 0.00 93 1015.0
20260902060044 77 0 0.0 0.0 0.00 0.07 0.00 93 1015.0
20260902055527 77 0 0.0 0.0 0.00 0.07 0.00 93 1014.9
20260902055021 77 0 0.0 0.0 0.00 0.07 0.00 93 1015.0
20260902054542 77 0 0.0 0.0 0.00 0.07 0.00 93 1015.0
20260902054025 77 0 0.0 0.0 0.00 0.07 0.00 93 1015.1
20260902053525 77 0 0.0 0.0 0.00 0.07 0.00 93 1015.1
20260902053052 77 0 0.0 0.0 0.00 0.07 0.00 93 1015.1
20260902052520 77 0 0.0 0.0 0.00 0.07 0.00 93 1015.1
20260902052022 77 0 0.0 0.0 0.00 0.07 0.00 93 1015.1
20260902051558 77 0 0.0 0.0 0.00 0.07 0.00 93 1015.2
20260902051021 77 0 0.0 0.0 0.00 0.07 0.00 93 1015.2
20260902050522 77 0 0.0 0.0 0.00 0.07 0.00 93 1015.1
20260902050043 77 0 0.0 0.0 0.00 0.07 0.00 93 1015.2
20260902045525 77 0 0.0 0.0 0.00 0.07 0.00 93 1015.1
20260902045025 77 0 0.0 3.0 0.00 0.07 0.00 92 1015.1
20260902044607 77 0 0.0 3.0 0.00 0.07 0.00 92 1015.0
20260902044023 77 309 1.0 3.0 0.00 0.07 0.00 92 1015.0
20260902043521 77 0 0.0 2.0 0.00 0.07 0.00 92 1015.0
20260902043051 77 0 0.0 2.0 0.00 0.07 0.00 92 1015.0
20260902042524 77 0 0.0 3.0 0.00 0.07 0.00 92 1015.1
20260902042024 77 317 1.0 3.0 0.00 0.07 0.00 92 1015.1
20260902041548 77 315 1.0 3.0 0.00 0.07 0.00 92 1015.2
20260902041025 77 0 0.0 0.0 0.00 0.07 0.00 92 1015.1
20260902040525 77 0 0.0 0.0 0.00 0.07 0.00 91 1015.2
20260902040046 77 0 0.0 0.0 0.00 0.07 0.00 91 1015.2
20260902035525 77 0 0.0 0.0 0.00 0.07 0.07 91 1015.3
20260902035029 77 0 0.0 0.0 0.00 0.07 0.07 91 1015.4
20260902034553 77 0 0.0 0.0 0.00 0.07 0.07 91 1015.5
20260902034023 77 0 0.0 0.0 0.00 0.07 0.07 91 1015.5
20260902033521 77 0 0.0 0.0 0.00 0.07 0.07 91 1015.6
20260902033048 77 0 0.0 0.0 0.00 0.07 0.07 90 1015.7
20260902032526 78 0 0.0 0.0 0.00 0.07 0.07 90 1015.8
20260902032029 78 0 0.0 0.0 0.00 0.07 0.07 90 1015.8
20260902031558 78 0 0.0 0.0 0.00 0.07 0.07 90 1015.9
20260902031024 78 0 0.0 0.0 0.00 0.07 0.07 90 1015.9
20260902030527 78 0 0.0 0.0 0.00 0.07 0.07 90 1016.0
20260902030042 78 0 0.0 0.0 0.00 0.07 0.07 90 1016.0
20260902025523 78 0 0.0 0.0 0.00 0.07 0.07 90 1015.9
20260902025025 78 0 0.0 0.0 0.00 0.07 0.07 90 1015.9
20260902024559 78 0 0.0 0.0 0.00 0.07 0.07 90 1016.0
20260902024021 78 0 0.0 0.0 0.00 0.07 0.07 90 1016.0
20260902023524 78 0 0.0 0.0 0.00 0.07 0.07 90 1015.9
20260902023050 78 0 0.0 0.0 0.00 0.07 0.07 89 1016.0
20260902022524 78 0 0.0 0.0 0.00 0.07 0.07 90 1016.1
20260902022021 78 0 0.0 0.0 0.00 0.07 0.07 89 1016.2
20260902021549 79 0 0.0 0.0 0.00 0.07 0.07 89 1016.2
20260902021029 79 0 0.0 0.0 0.00 0.07 0.07 89 1016.2
20260902020528 79 0 0.0 0.0 0.00 0.07 0.07 89 1016.1
20260902020046 79 0 0.0 0.0 0.00 0.07 0.07 89 1016.1
20260902015524 79 0 0.0 0.0 0.00 0.07 0.07 89 1016.2
20260902015024 79 0 0.0 0.0 0.00 0.07 0.07 89 1016.3
20260902014552 79 0 0.0 0.0 0.00 0.07 0.07 89 1016.3
20260902014028 79 0 0.0 0.0 0.00 0.07 0.07 89 1016.3
20260902013524 79 0 0.0 0.0 0.00 0.07 0.07 89 1016.2
20260902013050 79 0 0.0 0.0 0.00 0.07 0.07 89 1016.1
20260902012524 79 0 0.0 0.0 0.00 0.07 0.07 89 1016.0
20260902012024 79 0 0.0 0.0 0.00 0.07 0.07 89 1015.9
20260902011543 79 0 0.0 0.0 0.00 0.07 0.07 89 1016.0
20260902011025 80 0 0.0 0.0 0.00 0.07 0.07 89 1016.0
20260902010525 80 0 0.0 0.0 0.00 0.07 0.07 89 1016.0
20260902010059 80 0 0.0 0.0 0.00 0.07 0.07 89 1015.8
20260902005523 80 0 0.0 0.0 0.00 0.07 0.07 89 1015.7
20260902005026 80 0 0.0 0.0 0.00 0.07 0.07 89 1015.7
20260902004552 80 0 0.0 0.0 0.00 0.07 0.07 89 1015.7
20260902004026 80 0 0.0 0.0 0.00 0.07 0.07 88 1015.8
20260902003523 81 0 0.0 0.0 0.00 0.07 0.07 88 1015.8
20260902003049 81 0 0.0 0.0 0.00 0.07 0.07 88 1015.8
20260902002528 81 0 0.0 0.0 0.00 0.07 0.07 88 1015.8
20260902002026 81 0 0.0 0.0 0.00 0.07 0.07 88 1015.7
20260902001541 81 0 0.0 0.0 0.00 0.07 0.07 88 1015.6
20260902001025 81 0 0.0 1.0 0.00 0.07 0.07 88 1015.7
20260902000525 81 0 0.0 1.0 0.00 0.07 0.07 87 1015.6
20260902000052 81 0 0.0 4.0 0.00 0.07 0.07 87 1015.5
20260901235527 81 0 0.0 4.0 0.00 0.07 0.07 87 1015.5
20260901235027 81 53 1.0 6.0 0.00 0.07 0.07 87 1015.5
20260901234550 81 70 2.0 6.0 0.00 0.07 0.07 87 1015.6
20260901234028 82 55 2.0 6.0 0.00 0.07 0.07 86 1015.7
20260901233525 82 69 3.0 6.0 0.00 0.07 0.07 86 1015.6
20260901233050 82 82 2.0 5.0 0.00 0.07 0.07 86 1015.5
20260901232529 82 72 2.0 4.0 0.00 0.07 0.07 85 1015.5
20260901232024 82 80 2.0 7.0 0.00 0.07 0.07 85 1015.4
20260901231547 82 70 2.0 7.0 0.00 0.07 0.07 84 1015.6
20260901231023 82 77 3.0 8.0 0.00 0.07 0.07 84 1015.6
20260901230525 83 59 4.0 8.0 0.00 0.07 0.07 83 1015.5
20260901230105 83 0 0.0 0.0 0.00 0.07 0.07 83 1015.5
20260901225522 83 0 0.0 0.0 0.00 0.07 0.07 83 1015.4
20260901225024 83 0 0.0 2.0 0.00 0.07 0.07 83 1015.3
20260901224551 83 0 0.0 2.0 0.00 0.07 0.07 83 1015.2
20260901224028 83 0 0.0 1.0 0.00 0.07 0.07 84 1015.3
20260901223525 83 0 0.0 0.0 0.00 0.07 0.07 83 1015.1
20260901223046 83 0 0.0 0.0 0.00 0.07 0.07 83 1015.1
20260901222525 83 0 0.0 0.0 0.00 0.07 0.07 84 1015.2
20260901222026 83 0 0.0 0.0 0.00 0.07 0.07 83 1015.1
20260901221554 83 0 0.0 2.0 0.00 0.07 0.07 83 1015.1
20260901221025 83 0 0.0 2.0 0.00 0.07 0.07 83 1015.0
20260901220522 83 0 0.0 0.0 0.00 0.07 0.07 83 1015.0
20260901220042 84 0 0.0 0.0 0.00 0.07 0.07 84 1014.7
20260901215525 84 0 0.0 0.0 0.00 0.08 0.07 84 1014.8
20260901215021 84 0 0.0 0.0 0.00 0.08 0.07 84 1014.7
20260901214551 84 0 0.0 0.0 0.00 0.08 0.07 84 1014.7
20260901214024 84 0 0.0 0.0 0.00 0.08 0.07 84 1014.9
20260901213528 84 0 0.0 0.0 0.00 0.08 0.07 83 1014.7
20260901213052 84 0 0.0 0.0 0.00 0.08 0.07 83 1014.8
20260901212523 84 0 0.0 0.0 0.00 0.08 0.07 83 1014.9
20260901212027 84 0 0.0 0.0 0.00 0.08 0.07 83 1014.8
20260901211540 84 0 0.0 0.0 0.00 0.08 0.07 83 1014.8
20260901211028 84 0 0.0 0.0 0.00 0.08 0.07 83 1014.9
20260901210526 84 0 0.0 0.0 0.00 0.08 0.07 83 1014.9
20260901210048 84 0 0.0 0.0 0.00 0.08 0.07 83 1014.8
20260901205526 84 0 0.0 0.0 0.00 0.16 0.07 83 1014.9
20260901205026 84 0 0.0 0.0 0.00 0.16 0.07 83 1015.0
20260901204547 84 0 0.0 0.0 0.00 0.16 0.07 83 1014.9
20260901204025 84 0 0.0 0.0 0.00 0.16 0.07 83 1014.9
20260901203526 84 0 0.0 0.0 0.00 0.16 0.07 84 1015.0
20260901203054 84 0 0.0 0.0 0.00 0.16 0.07 83 1015.0
20260901202525 84 0 0.0 0.0 0.00 0.16 0.07 84 1015.1
20260901202025 84 0 0.0 0.0 0.00 0.16 0.07 84 1015.2
20260901201552 84 0 0.0 0.0 0.00 0.16 0.07 84 1015.3
20260901201024 84 0 0.0 0.0 0.00 0.16 0.07 83 1015.3
20260901200528 84 0 0.0 0.0 0.00 0.16 0.07 84 1015.3
20260901200052 84 0 0.0 0.0 0.00 0.16 0.07 84 1015.4
20260901195521 84 0 0.0 0.0 0.00 0.17 0.07 84 1015.4
20260901195022 84 0 0.0 0.0 0.00 0.17 0.07 83 1015.4
20260901194559 84 0 0.0 14.0 0.00 0.17 0.07 83 1015.4
20260901194024 84 0 6.0 14.0 0.00 0.17 0.07 82 1015.4
20260901193523 84 0 0.0 0.0 0.00 0.17 0.07 82 1015.5
20260901193045 85 0 0.0 0.0 0.00 0.17 0.07 83 1015.4
20260901192528 85 0 0.0 8.0 0.00 0.17 0.07 82 1015.3
20260901192026 85 0 0.0 8.0 0.00 0.17 0.07 81 1015.4
20260901191545 86 27 0.0 7.0 0.00 0.17 0.07 80 1015.4
20260901191025 86 71 0.0 5.0 0.00 0.17 0.07 81 1015.4
20260901190526 86 0 0.0 0.0 0.00 0.17 0.07 81 1015.5
20260901190051 86 0 0.0 0.0 0.00 0.17 0.07 80 1015.5
20260901185524 86 0 0.0 0.0 0.00 0.32 0.07 80 1015.5
20260901185023 86 0 0.0 0.0 0.00 0.32 0.07 81 1015.5
20260901184546 86 0 0.0 0.0 0.00 0.32 0.07 82 1015.7
20260901184028 85 0 0.0 0.0 0.00 0.32 0.07 81 1015.7
20260901183524 85 0 0.0 0.0 0.00 0.32 0.07 81 1015.9
20260901183100 85 0 0.0 0.0 0.00 0.32 0.07 81 1016.0
20260901182525 86 0 0.0 0.0 0.00 0.32 0.07 80 1016.1
20260901182025 86 0 0.0 0.0 0.00 0.32 0.07 81 1016.1
20260901181542 85 0 0.0 0.0 0.00 0.32 0.07 81 1016.2
20260901181025 85 0 0.0 0.0 0.00 0.32 0.07 81 1016.0
20260901180524 85 0 0.0 0.0 0.00 0.32 0.07 83 1016.2
20260901180048 84 0 0.0 0.0 0.00 0.32 0.07 84 1016.2
20260901175526 83 0 0.0 0.0 0.00 0.94 0.07 84 1016.1
20260901175023 83 0 0.0 0.0 0.00 0.94 0.07 88 1016.2
20260901174546 83 0 0.0 0.0 0.00 0.94 0.07 89 1016.3
20260901174024 82 0 0.0 0.0 0.00 0.94 0.07 90 1016.3
20260901173526 82 0 0.0 0.0 0.00 0.94 0.07 92 1016.4
20260901173129 82 0 0.0 6.0 0.00 0.94 0.07 92 1016.5
20260901172524 81 0 1.0 6.0 0.00 0.94 0.07 92 1016.5
20260901172025 81 77 0.0 4.0 0.05 0.94 0.07 92 1016.7
20260901171554 81 0 0.0 4.0 0.07 0.94 0.07 92 1016.8
20260901171029 80 67 1.0 4.0 0.07 0.94 0.07 92 1017.1
20260901170523 80 0 1.0 4.0 0.07 0.94 0.07 92 1017.2
20260901170052 80 0 0.0 0.0 0.07 0.94 0.07 92 1017.2
20260901165524 80 0 0.0 0.0 0.07 0.95 0.07 91 1017.2
20260901165025 80 0 0.0 0.0 0.07 0.95 0.07 91 1017.2
20260901164553 80 0 0.0 0.0 0.07 0.95 0.07 89 1017.3
20260901164025 81 0 0.0 0.0 0.07 0.95 0.07 89 1017.3
20260901163524 81 0 0.0 9.0 0.07 0.95 0.07 87 1017.5
20260901163108 82 0 2.0 9.0 0.07 0.95 0.07 86 1017.3
20260901162524 83 336 0.0 11.0 0.07 0.95 0.07 85 1017.3
20260901162032 84 0 3.0 11.0 0.01 0.89 0.01 84 1017.3
20260901161554 85 0 0.0 6.0 0.00 0.88 0.00 81 1017.1
20260901161023 87 0 0.0 6.0 0.00 0.88 0.00 77 1016.9
20260901160525 88 0 0.0 0.0 0.00 0.88 0.00 76 1017.0
20260901160044 88 0 0.0 0.0 0.00 0.88 0.00 76 1016.9
20260901155526 87 0 0.0 0.0 0.00 0.88 0.00 76 1017.0
20260901155025 87 0 0.0 0.0 0.00 0.88 0.00 77 1017.0
20260901154550 86 0 0.0 0.0 0.00 0.88 0.00 77 1017.0
20260901154026 86 0 0.0 0.0 0.00 0.88 0.00 76 1017.1
20260901153523 86 0 0.0 0.0 0.00 0.88 0.00 79 1017.1
20260901153052 86 0 0.0 0.0 0.00 0.88 0.00 80 1017.2
20260901152525 86 0 0.0 0.0 0.00 0.88 0.00 80 1017.2
20260901152027 85 0 0.0 0.0 0.00 0.88 0.00 80 1017.2
20260901151554 85 0 0.0 6.0 0.00 0.88 0.00 80 1017.1
20260901151025 85 0 0.0 9.0 0.00 0.88 0.00 79 1017.1
20260901150526 84 78 5.0 9.0 0.00 0.88 0.00 81 1017.1
20260901150044 84 74 1.0 3.0 0.00 0.88 0.00 81 1017.0
20260901145524 84 0 0.0 0.0 0.00 0.89 0.00 82 1017.1
20260901145024 84 0 0.0 0.0 0.00 0.89 0.00 84 1017.0
20260901144553 84 0 0.0 4.0 0.00 0.89 0.00 84 1017.1
20260901144024 84 0 0.0 4.0 0.00 0.89 0.00 84 1017.0
20260901143525 84 0 0.0 4.0 0.00 0.89 0.00 86 1017.0
20260901143059 84 77 0.0 0.0 0.00 0.89 0.00 86 1017.0
20260901142523 84 0 0.0 0.0 0.00 0.89 0.00 87 1016.9
20260901142026 83 0 0.0 0.0 0.00 0.89 0.00 87 1016.9
20260901141545 83 0 0.0 0.0 0.00 0.89 0.00 88 1017.0
20260901141025 83 0 0.0 7.0 0.00 0.89 0.00 89 1017.0
20260901140523 82 0 1.0 7.0 0.00 0.89 0.00 91 1016.9
20260901140052 82 66 1.0 4.0 0.00 0.89 0.00 93 1016.9
20260901135527 82 72 0.0 4.0 0.00 0.89 0.00 94 1016.8
20260901135021 81 0 1.0 4.0 0.00 0.89 0.00 94 1016.8
20260901134553 81 61 0.0 8.0 0.00 0.89 0.00 95 1016.7
20260901134026 81 0 2.0 8.0 0.00 0.89 0.00 95 1016.6
20260901133529 81 72 1.0 4.0 0.00 0.89 0.00 95 1016.6
20260901133055 80 53 0.0 3.0 0.00 0.89 0.00 96 1016.6
20260901132525 80 105 0.0 1.0 0.00 0.89 0.00 96 1016.4
20260901132025 80 0 0.0 2.0 0.00 0.89 0.00 96 1016.5
20260901131544 80 0 0.0 2.0 0.00 0.89 0.00 96 1016.4
20260901131025 80 0 0.0 0.0 0.00 0.89 0.00 96 1016.5
20260901130524 80 0 0.0 3.0 0.00 0.89 0.00 96 1016.6
20260901130054 80 0 0.0 3.0 0.00 0.89 0.00 96 1016.5
20260901125521 80 53 0.0 3.0 0.00 0.89 0.00 96 1016.4
20260901125023 79 0 0.0 0.0 0.00 0.89 0.00 96 1016.4
20260901124551 79 0 0.0 0.0 0.00 0.89 0.00 96 1016.5
20260901124027 79 0 0.0 0.0 0.00 0.89 0.00 96 1016.4
20260901123524 79 0 0.0 0.0 0.00 0.89 0.00 96 1016.4
20260901123050 79 0 0.0 0.0 0.00 0.89 0.00 96 1016.3
20260901122525 78 0 0.0 0.0 0.00 0.89 0.00 96 1016.3
20260901122023 78 0 0.0 0.0 0.00 0.89 0.00 96 1016.3
20260901121544 78 0 0.0 0.0 0.00 0.89 0.00 96 1016.1
20260901121025 77 0 0.0 0.0 0.00 0.89 0.00 96 1016.1
20260901120526 77 0 0.0 0.0 0.00 0.89 0.00 96 1016.0
20260901120103 77 0 0.0 0.0 0.00 0.89 0.00 96 1015.9
20260901115524 77 0 0.0 0.0 0.00 0.89 0.00 96 1015.9
20260901115025 77 0 0.0 0.0 0.00 0.89 0.00 96 1015.8
20260901114551 76 0 0.0 0.0 0.00 0.89 0.00 96 1015.8
20260901114023 76 0 0.0 0.0 0.00 0.89 0.00 96 1015.9
20260901113523 76 0 0.0 0.0 0.00 0.89 0.00 96 1015.8
20260901113045 76 0 0.0 0.0 0.00 0.89 0.00 96 1015.7
20260901112526 76 0 0.0 0.0 0.00 0.89 0.00 96 1015.7
20260901112028 76 0 0.0 0.0 0.00 0.89 0.00 96 1015.7
20260901111544 76 0 0.0 0.0 0.00 0.89 0.00 96 1015.7
20260901111024 76 0 0.0 0.0 0.00 0.89 0.00 96 1015.6
20260901110524 76 0 0.0 0.0 0.00 0.89 0.00 96 1015.6
20260901110054 76 0 0.0 0.0 0.00 0.89 0.00 96 1015.6
20260901105523 76 0 0.0 0.0 0.00 0.89 0.00 96 1015.5
20260901105025 76 0 0.0 0.0 0.00 0.89 0.00 96 1015.5
20260901104547 76 0 0.0 0.0 0.00 0.89 0.00 96 1015.5
20260901104026 76 0 0.0 0.0 0.00 0.89 0.00 96 1015.3
20260901103524 76 0 0.0 0.0 0.00 0.89 0.00 96 1015.4
20260901103046 76 0 0.0 0.0 0.00 0.89 0.00 96 1015.3
20260901102525 76 0 0.0 0.0 0.00 0.89 0.00 96 1015.4
20260901102026 76 0 0.0 0.0 0.00 0.89 0.00 96 1015.3
20260901101605 76 0 0.0 0.0 0.00 0.89 0.00 96 1015.2
20260901101025 76 0 0.0 0.0 0.00 0.89 0.00 96 1015.1
20260901100524 76 0 0.0 0.0 0.00 0.89 0.00 96 1015.1
20260901100105 76 0 0.0 0.0 0.00 0.89 0.00 96 1015.1
20260901095524 76 0 0.0 0.0 0.00 0.89 0.00 96 1015.2
20260901095023 76 0 0.0 0.0 0.00 0.89 0.00 96 1015.1
20260901094552 76 0 0.0 0.0 0.00 0.89 0.00 96 1015.1
20260901094024 76 0 0.0 0.0 0.00 0.89 0.00 96 1015.0
20260901093523 76 0 0.0 0.0 0.00 0.89 0.00 96 1014.9
20260901093047 76 0 0.0 0.0 0.00 0.89 0.00 96 1014.9
20260901092525 76 0 0.0 0.0 0.00 0.89 0.00 96 1014.9
20260901092025 76 0 0.0 0.0 0.00 0.89 0.00 96 1014.9
20260901091542 76 0 0.0 0.0 0.00 0.89 0.00 96 1014.9
20260901091023 76 0 0.0 0.0 0.00 0.89 0.00 96 1014.9
20260901090528 76 0 0.0 0.0 0.00 0.89 0.00 96 1014.9
20260901090050 76 0 0.0 0.0 0.00 0.89 0.00 96 1014.8
20260901085524 76 0 0.0 0.0 0.00 0.89 0.00 96 1014.9
20260901085024 76 0 0.0 0.0 0.00 0.89 0.00 96 1014.9
20260901084559 76 0 0.0 0.0 0.00 0.89 0.00 96 1015.0
20260901084024 76 0 0.0 0.0 0.00 0.89 0.00 96 1014.8